CAPE
1 2 2 1 2 1 1 2 2 1 2 2 2 2 2 2 1 1 2 1 1 1 0 0 0 0 0 0 0 0 0 0 0 0 0 0 0 3 14 6 3 43 0 0 0 46 191
1 1 1 1 1 1 2 2 2 2 2 2 2 2 1 1 2 1 1 1 0 0 0 0 0 0 0 0 0 0 0 0 0 0 0 0 0 0 3 18 10 1 0 1 0 27 75
2 1 2 2 1 1 1 2 3 2 3 2 2 2 2 1 1 1 0 0 0 0 0 0 0 0 0 0 0 0 0 0 0 0 0 0 0 0 2 9 0 0 0 2 21 55 91
5 2 1 1 1 0 0 1 2 2 2 2 2 2 1 1 0 0 0 0 0 0 0 0 0 0 0 0 0 0 0 0 0 0 0 0 0 0 0 0 0 0 12 30 11 0 152
6 2 1 1 1 1 1 1 2 1 2 1 1 1 0 1 0 0 0 0 0 0 0 0 0 0 0 0 0 0 0 0 0 0 0 0 0 0 0 0 4 6 16 39 14 0 96
8 2 2 3 2 1 1 1 1 1 1 0 1 1 1 0 0 0 0 0 0 0 0 0 0 0 0 0 0 0 0 0 0 0 0 0 0 0 0 7 33 30 58 31 30 19 11
3 2 3 2 1 0 1 1 2 2 1 1 1 1 0 0 0 0 0 0 0 0 0 0 0 0 0 0 0 0 0 0 0 0 0 0 0 1 15 11 17 12 0 30 45 25 50
2 2 2 1 1 1 1 1 1 1 1 1 1 0 0 0 0 0 0 0 0 0 0 0 0 0 0 0 0 0 0 0 0 0 0 0 0 0 21 1 0 1 8 23 48 34 16
2 1 1 1 1 1 1 0 1 1 1 1 1 1 0 0 0 0 0 0 0 0 0 0 0 0 0 0 0 0 0 0 0 0 0 0 0 0 0 0 0 0 26 29 17 21 0
1 1 1 1 1 0 0 1 1 1 1 1 1 1 0 0 0 0 0 0 0 0 0 0 0 0 0 0 0 0 0 0 0 0 0 0 0 0 0 0 0 3 5 0 0 0 23
1 1 1 1 1 1 1 1 1 1 1 1 0 1 1 1 0 0 0 0 0 0 0 0 0 0 0 0 0 0 0 0 0 0 0 0 0 0 0 0 0 4 0 0 0 4 11
2 1 1 1 1 1 1 1 1 0 1 1 1 1 1 0 0 0 0 0 0 0 0 0 0 0 0 0 0 0 0 0 0 0 0 0 0 0 0 0 0 0 0 0 0 2 16
3 3 1 2 1 1 1 1 1 1 1 1 1 2 2 0 0 0 0 0 0 0 0 0 0 0 0 0 0 0 0 0 0 0 0 0 0 0 0 0 0 0 0 0 24 53 50
2 2 1 1 1 1 1 1 1 1 1 2 0 0 0 0 0 0 0 0 0 0 0 0 0 0 0 0 0 0 0 0 0 0 0 0 0 0 0 0 0 0 0 1 143 171 96
1 2 1 1 1 1 1 1 1 1 1 0 0 0 0 0 0 0 0 0 0 2 1 0 0 0 0 0 0 0 0 0 0 0 0 0 0 0 0 0 0 0 0 0 77 94 69
2 3 2 1 1 1 1 1 1 1 0 0 0 0 0 0 0 0 0 0 46 2 0 0 0 0 0 0 0 0 0 0 0 0 0 0 0 0 0 0 0 0 2 2 13 0 11
4 3 2 1 1 1 1 1 1 1 0 0 0 17 0 0 0 1 0 13 0 0 0 0 0 0 0 0 0 0 0 0 0 0 0 0 0 0 0 0 0 0 0 1 121 124 74
2 3 3 2 2 2 1 1 1 0 0 0 17 45 0 0 0 6 5 28 0 0 0 0 0 0 0 0 0 0 0 0 0 0 0 0 0 0 0 0 0 0 0 0 0 7 6
4 3 4 4 2 3 1 1 1 0 0 0 53 0 0 0 18 41 0 2 0 0 0 0 0 0 0 0 0 0 0 0 0 0 0 0 0 0 0 0 0 0 0 0 3 42 79
4 5 5 9 3 2 1 1 0 0 0 0 79 5 0 0 0 8 5 0 0 0 0 0 0 0 0 0 0 0 0 0 0 0 0 0 0 0 0 0 0 0 0 0 0 14 21
12 6 8 9 7 2 1 1 0 0 0 0 276 431 64 3 0 0 1 1 0 0 0 0 0 0 3 35 17 20 0 0 0 0 0 0 0 0 0 0 0 0 0 0 0 0 0
11 10 6 5 4 3 1 1 0 0 0 0 45 353 149 152 18 0 0 0 0 0 28 0 6 8 119 148 156 171 124 152 24 0 0 0 0 0 0 0 0 0 0 0 0 0 0
7 8 5 5 4 3 1 1 1 0 0 0 0 0 49 191 151 108 194 14 1 0 6 102 94 115 226 410 445 714 454 376 321 9 0 0 0 0 0 0 0 0 0 0 0 0 6
5 4 4 3 3 3 2 1 1 0 0 0 0 0 4 129 114 175 196 50 3 4 206 113 272 244 591 487 349 304 245 242 261 203 24 0 0 0 0 0 0 0 0 0 0 0 0
4 2 1 1 1 2 2 2 2 1 0 0 0 0 0 1 108 98 61 89 86 182 183 322 287 412 548 537 338 315 344 321 213 133 91 101 25 16 0 3 0 6 3 0 0 0 0
2 5 3 1 1 1 1 1 1 1 0 0 0 0 0 0 0 5 17 136 150 107 173 414 326 514 432 440 281 273 144 114 28 136 160 190 127 198 81 67 28 55 261 46 1 0 15
4 3 3 2 1 1 1 2 0 2 0 0 0 0 0 0 0 0 0 7 169 310 393 398 568 521 504 472 338 231 185 197 13 96 263 318 333 194 137 96 1 522 476 379 81 536 1216
2 3 3 2 2 2 2 1 1 1 2 0 0 0 0 0 0 0 0 0 61 209 326 540 493 532 614 392 311 222 186 256 14 0 64 335 135 91 159 133 148 763 498 798 1241 1236 1207
1 2 2 2 2 2 2 1 1 1 1 0 0 0 0 0 0 0 0 0 0 1 40 286 543 771 826 672 218 439 239 34 178 114 125 43 0 51 118 1003 1263 1259 864 111 1115 1326 1237
CIN
-2 -1 -2 -3 -1 -1 -0 -0 -0 -0 -0 -0 -0 -0 -0 -0 -0 -0 -0 -0 -0 -0 -0 -0 -0 -0 -0 -0 -0 -0 -0 -0 -0 -0 -0 -0 -0 -2 -5 -1 -1 -4 -0 -0 -0 -17 -1
-5 -1 -0 -1 -2 -2 -0 -0 -0 -0 -0 -0 -0 -0 -0 -0 -0 -0 -0 -0 -0 -0 -0 -0 -0 -0 -0 -0 -0 -0 -0 -0 -0 -0 -0 -0 -0 -0 -4 -2 -4 -0 -0 -1 -0 -0 -3
-5 -2 -0 -1 -1 -1 -1 -1 -0 -0 -0 -0 -0 -0 -0 -0 -0 -0 -0 -0 -0 -0 -0 -0 -0 -0 -0 -0 -0 -0 -0 -0 -0 -0 -0 -0 -0 -0 -5 -3 -0 -0 -0 -1 -4 -1 -2
-3 -4 -0 -0 -0 -0 -1 -1 -1 -0 -0 -0 -0 -0 -0 -0 -0 -0 -0 -0 -0 -0 -0 -0 -0 -0 -0 -0 -0 -0 -0 -0 -0 -0 -0 -0 -0 -0 -0 -0 -0 -0 -4 -5 -5 -0 -9
-2 -3 -1 -0 -0 -0 -0 -0 -0 -1 -0 -1 -0 -0 -0 -0 -0 -0 -0 -0 -0 -0 -0 -0 -0 -0 -0 -0 -0 -0 -0 -0 -0 -0 -0 -0 -0 -0 -0 -0 -1 -2 -7 -3 -8 -0 -3
-1 -2 -1 -1 -0 -0 -0 -0 -0 -0 -0 -0 -0 -0 -0 -0 -0 -0 -0 -0 -0 -0 -0 -0 -0 -0 -0 -0 -0 -0 -0 -0 -0 -0 -0 -0 -0 -0 -0 -5 -6 -7 -5 -5 -2 -7 -10
-2 -1 -1 -1 -1 -2 -1 -0 -0 -0 -0 -0 -1 -0 -0 -0 -0 -0 -0 -0 -0 -0 -0 -0 -0 -0 -0 -0 -0 -0 -0 -0 -0 -0 -0 -0 -0 -1 -4 -3 -3 -13 -0 -2 -3 -3 -4
-3 -1 -0 -0 -1 -2 -2 -0 -0 -0 -0 -0 -0 -1 -0 -0 -0 -0 -0 -0 -0 -0 -0 -0 -0 -0 -0 -0 -0 -0 -0 -0 -0 -0 -0 -0 -0 -0 -6 -3 -0 -3 -1 -4 -5 -2 -1
-1 -2 -1 -0 -1 -1 -2 -0 -0 -0 -0 -0 -0 -0 -0 -0 -0 -0 -0 -0 -0 -0 -0 -0 -0 -0 -0 -0 -0 -0 -0 -0 -0 -0 -0 -0 -0 -0 -0 -0 -0 -0 -5 -4 -8 -7 -0
-1 -3 -2 -1 -0 -0 -1 -0 -0 -1 -0 -0 -0 -2 -2 -0 -0 -0 -0 -0 -0 -0 -0 -0 -0 -0 -0 -0 -0 -0 -0 -0 -0 -0 -0 -0 -0 -0 -0 -0 -0 -6 -6 -0 -0 -0 -6
-1 -2 -3 -2 -1 -0 -0 -0 -1 -1 -1 -0 -0 -1 -2 -1 -0 -0 -0 -0 -0 -0 -0 -0 -0 -0 -0 -0 -0 -0 -0 -0 -0 -0 -0 -0 -0 -0 -0 -0 -0 -2 -0 -0 -0 -3 -5
-0 -1 -2 -1 -1 -0 -1 -1 -1 -1 -0 -0 -0 -0 -0 -0 -0 -0 -0 -0 -0 -0 -0 -0 -0 -0 -0 -0 -0 -0 -0 -0 -0 -0 -0 -0 -0 -0 -0 -0 -0 -0 -0 -0 -0 -2 -7
-1 -3 -1 -1 -1 -0 -1 -1 -1 -1 -0 -1 -1 -0 -0 -0 -0 -0 -0 -0 -0 -0 -0 -0 -0 -0 -0 -0 -0 -0 -0 -0 -0 -0 -0 -0 -0 -0 -0 -0 -0 -0 -0 -0 -16 -19 -11
-3 -3 -1 -2 -1 -0 -1 -0 -0 -0 -1 -1 -0 -0 -0 -0 -0 -0 -0 -0 -0 -0 -0 -0 -0 -0 -0 -0 -0 -0 -0 -0 -0 -0 -0 -0 -0 -0 -0 -0 -0 -0 -0 -3 -5 -8 -31
-5 -4 -4 -3 -1 -0 -0 -0 -0 -0 -0 -1 -0 -0 -0 -0 -0 -0 -0 -0 -0 -0 -3 -0 -0 -0 -0 -0 -0 -0 -0 -0 -0 -0 -0 -0 -0 -0 -0 -0 -0 -0 -0 -0 -8 -5 -7
-4 -5 -3 -2 -1 -0 -0 -0 -0 -0 -0 -0 -0 -0 -0 -0 -0 -0 -92 -0 -4 -7 -0 -0 -0 -0 -0 -0 -0 -0 -0 -0 -0 -0 -0 -0 -0 -0 -0 -0 -0 -0 -3 -12 -31 -0 -18
-4 -3 -3 -2 -1 -0 -0 -0 -0 -0 -0 -0 -0 -63 -0 -0 -0 -256 -99 -29 -0 -0 -0 -0 -0 -0 -0 -0 -0 -0 -0 -0 -0 -0 -0 -0 -0 -0 -0 -0 -0 -0 -0 -25 -6 -9 -20
-3 -3 -2 -1 -1 -0 -0 -0 -0 -0 -0 -0 -153 -30 -0 -0 -3 -196 -125 -12 -0 -0 -0 -0 -0 -0 -0 -0 -0 -0 -0 -0 -0 -0 -0 -0 -0 -0 -0 -0 -0 -0 -0 -0 -0 -27 -29
-2 -3 -2 -3 -3 -2 -1 -0 -0 -0 -0 -0 -76 -0 -0 -0 -67 -17 -0 -4 -0 -0 -0 -0 -0 -0 -0 -0 -0 -0 -0 -0 -0 -0 -0 -0 -0 -0 -0 -0 -0 -0 -0 -0 -3 -6 -7
-2 -2 -2 -1 -2 -1 -1 -0 -0 -0 -0 -0 -55 -23 -0 -0 -0 -9 -2 -0 -0 -0 -0 -0 -1 -0 -0 -0 -0 -0 -0 -0 -0 -0 -0 -0 -0 -0 -0 -0 -0 -0 -0 -0 -1 -7 -8
-0 -2 -0 -0 -0 -2 -0 -0 -0 -0 -0 -0 -21 -8 -63 -8 -0 -0 -0 -2 -0 -0 -0 -0 -0 -0 -3 -11 -11 -2 -0 -16 -0 -0 -0 -0 -0 -0 -0 -0 -0 -0 -0 -0 -0 -0 -0
-0 -0 -0 -0 -0 -0 -1 -0 -0 -0 -0 -0 -42 -2 -17 -11 -83 -0 -0 -0 -0 -0 -2 -0 -3 -11 -5 -2 -2 -2 -6 -5 -51 -0 -0 -0 -0 -0 -0 -0 -0 -0 -0 -0 -0 -0 -0
-0 -0 -0 -0 -0 -0 -0 -0 -1 -0 -0 -0 -0 -0 -71 -38 -18 -15 -4 -4 -0 -0 -4 -17 -9 -17 -4 -15 -13 -31 -5 -6 -11 -80 -0 -0 -0 -0 -0 -0 -0 -0 -0 -0 -0 -0 -1
-1 -0 -0 -0 -0 -0 -0 -0 -0 -0 -0 -0 -0 -0 -23 -19 -23 -5 -2 -32 -2 -24 -7 -18 -24 -23 -23 -61 -66 -34 -6 -5 -7 -4 -4 -0 -0 -0 -0 -0 -0 -0 -0 -0 -0 -0 -0
-0 -0 -0 -0 -0 -0 -0 -0 -0 -0 -0 -0 -0 -0 -0 -7 -20 -39 -51 -33 -21 -3 -35 -2 -5 -7 -53 -47 -13 -3 -1 -3 -2 -4 -8 -6 -5 -4 -0 -4 -0 -4 -5 -0 -0 -0 -0
-0 -0 -0 -0 -0 -0 -0 -0 -0 -0 -0 -0 -0 -0 -0 -0 -0 -11 -2 -15 -9 -9 -6 -6 -12 -52 -45 -14 -4 -2 -4 -6 -7 -4 -3 -3 -4 -5 -5 -4 -7 -4 -18 -6 -0 -0 -0
-0 -0 -0 -0 -0 -0 -0 -0 -0 -0 -0 -0 -0 -0 -0 -0 -0 -0 -0 -6 -12 -3 -3 -1 -4 -17 -23 -2 -2 -4 -5 -27 -25 -18 -3 -2 -7 -5 -5 -5 -2 -20 -28 -16 -5 -22 -51
-0 -0 -0 -0 -0 -0 -0 -0 -0 -0 -0 -0 -0 -0 -0 -0 -0 -0 -0 -0 -33 -10 -4 -19 -13 -6 -3 -2 -3 -3 -9 -3 -21 -0 -16 -24 -20 -5 -4 -4 -4 -30 -30 -14 -65 -114 -86
-0 -0 -0 -0 -0 -0 -0 -0 -0 -0 -0 -0 -0 -0 -0 -0 -0 -0 -0 -0 -0 -6 -53 -9 -3 -14 -11 -7 -3 -2 -33 -264 -10 -18 -4 -8 -0 -28 -9 -5 -28 -39 -130 -223 -47 -76 -116
Wind_Speed
32 31 31 31 30 30 29 29 28 28 28 27 27 27 27 27 26 26 26 26 26 25 25 24 23 23 21 18 26 13 18 15 8 10 23 22 21 15 12 11 10 11 11 10 10 11 13
32 32 31 31 31 30 30 29 29 28 28 28 28 28 27 27 27 27 27 27 27 26 26 25 23 22 19 26 15 14 18 14 8 16 22 26 19 17 15 10 14 10 11 9 9 10 11
32 32 32 31 31 30 30 29 29 29 29 29 29 29 28 28 28 28 28 28 27 27 26 24 21 21 25 23 16 13 17 16 9 18 21 24 19 23 13 8 13 10 8 9 8 10 13
32 32 32 32 31 30 30 29 29 29 29 29 29 29 29 29 29 29 28 28 27 26 23 20 19 20 22 13 19 13 17 6 14 22 27 15 22 23 17 14 6 4 12 6 7 9 10
33 33 32 32 31 31 30 29 29 29 30 30 30 30 29 30 29 29 29 27 25 22 18 17 18 18 24 12 6 3 5 3 10 12 19 20 24 27 6 19 14 7 5 10 6 8 13
33 33 32 32 31 31 30 30 30 30 30 30 30 30 30 30 29 29 28 26 21 20 18 19 24 20 23 18 4 5 2 10 8 7 3 3 23 21 26 20 11 7 7 7 7 8 7
33 33 32 31 31 31 30 30 31 31 31 30 30 30 30 30 29 28 25 20 20 21 24 21 17 19 12 11 11 0 2 2 4 6 7 13 19 23 21 23 15 8 10 12 9 14 15
34 33 32 31 31 31 31 31 31 31 31 30 31 31 31 30 30 28 24 21 19 20 25 30 24 25 18 16 10 3 6 2 4 9 14 7 25 27 25 13 11 10 9 7 10 9 7
34 33 32 31 31 31 31 31 31 32 31 31 31 31 31 31 30 25 22 24 20 21 24 22 25 24 17 15 15 6 10 7 5 13 14 20 23 31 5 9 16 14 16 14 14 9 13
34 33 32 32 31 31 31 31 32 32 31 32 32 31 31 30 24 19 23 21 22 19 25 21 21 24 16 16 22 6 8 9 14 9 18 31 26 29 7 18 19 17 6 13 6 8 14
34 33 32 32 31 31 32 32 33 33 32 32 32 31 30 24 24 20 14 15 16 17 27 13 14 9 11 14 11 9 8 14 25 12 7 29 32 24 16 20 20 21 12 11 8 15 20
33 32 32 31 31 31 32 33 33 34 33 33 31 31 27 19 19 22 17 16 15 24 29 18 16 19 16 21 13 7 9 22 27 22 14 33 18 13 20 20 22 8 16 4 6 9 5
32 32 32 31 30 31 32 32 34 33 33 31 30 28 20 21 15 14 16 15 22 32 15 20 20 17 18 18 16 10 12 13 11 10 7 29 24 20 15 16 15 3 7 5 2 2 4
32 32 31 30 30 30 31 32 32 31 30 29 27 23 13 18 18 16 15 21 31 29 23 16 18 18 23 16 17 13 15 17 23 17 5 10 9 13 12 17 10 13 14 10 12 16 22
32 31 30 29 29 29 31 31 30 30 29 26 21 12 12 12 17 17 18 30 28 23 19 21 19 21 23 18 18 17 16 16 13 15 29 7 10 5 13 7 16 9 14 19 29 32 20
31 30 29 27 27 28 28 28 28 27 26 23 12 10 10 8 9 18 22 34 21 19 22 24 24 24 24 19 22 17 15 16 16 12 34 21 14 5 7 5 16 23 3 3 3 16 18
30 29 27 27 26 26 25 25 26 25 24 20 12 10 11 7 12 23 28 27 22 22 23 25 28 23 26 20 21 17 17 17 22 11 27 28 19 6 6 14 9 12 12 7 20 7 29
28 27 26 26 25 24 23 23 23 23 22 10 14 10 7 6 19 31 33 28 21 21 23 23 21 22 27 20 20 19 22 19 17 21 12 16 15 17 5 6 10 12 14 9 3 6 20
26 25 24 24 24 24 23 22 21 21 20 14 14 14 6 27 26 31 33 25 26 24 23 22 24 23 21 17 19 25 20 14 15 20 13 12 19 16 11 6 10 15 13 14 14 26 12
24 23 24 24 25 24 23 22 20 19 18 14 16 15 16 27 28 25 33 29 31 29 26 23 21 19 20 18 16 16 14 14 16 21 17 22 19 18 16 13 6 8 10 9 15 12 5
23 22 22 22 23 23 22 21 20 19 18 15 17 16 9 20 28 29 24 23 32 28 27 23 25 25 20 18 17 18 19 10 17 15 15 20 19 25 26 28 17 12 9 12 12 28 39
20 20 22 21 21 21 21 21 21 21 19 15 17 17 17 20 20 26 24 28 29 29 22 25 26 20 20 22 19 16 16 13 14 14 16 14 22 21 26 24 24 23 22 13 14 12 39
17 19 20 21 21 22 22 23 23 23 18 17 19 21 20 21 25 26 23 23 26 25 21 24 22 20 23 22 15 16 17 17 13 12 13 15 16 18 21 20 19 19 16 19 26 35 28
15 16 16 19 21 21 21 21 22 22 21 17 20 21 22 23 24 20 16 18 23 23 26 22 22 24 18 19 22 23 21 18 17 20 12 13 18 21 25 21 24 22 27 19 28 37 29
12 12 12 13 16 17 20 22 22 21 21 18 19 20 22 26 24 20 24 23 22 20 24 24 23 21 18 19 21 19 18 19 19 16 18 15 15 18 21 20 24 23 21 23 25 29 28
14 14 13 12 12 12 14 17 21 22 20 16 19 20 22 24 26 23 23 24 27 22 11 21 19 21 21 22 19 21 22 19 18 15 13 15 14 21 18 22 25 26 21 15 21 27 23
14 12 11 12 14 13 13 14 12 19 20 16 14 19 21 27 30 25 24 26 22 25 21 10 10 15 19 23 26 23 25 20 33 18 14 16 18 18 20 26 24 15 16 17 19 19 18
17 14 13 16 17 14 13 13 13 14 18 21 14 17 22 25 30 29 28 27 22 22 27 21 15 17 16 24 25 27 28 22 24 29 28 14 9 12 23 32 38 21 25 27 19 16 18
23 21 17 14 12 25 27 26 25 24 22 21 9 16 15 6 24 28 31 33 33 29 25 17 19 17 17 20 27 29 22 28 31 29 17 24 24 25 28 22 23 21 20 25 29 20 20
Wind_Direction
342 341 340 339 338 334 329 328 325 321 318 316 314 310 307 303 299 295 291 286 282 279 276 271 265 259 269 282 241 327 273 284 101 116 171 245 258 293 312 314 316 336 345 353 18 15 354
339 338 338 338 338 334 329 325 324 321 318 314 312 310 306 302 299 295 290 286 282 278 275 271 269 265 279 243 299 301 281 287 174 144 164 199 264 278 299 318 306 331 335 1 22 27 29
338 337 337 340 340 334 327 323 321 321 320 315 311 308 306 303 298 294 289 284 280 276 274 274 273 277 262 253 295 296 281 281 124 150 160 180 262 237 305 330 314 336 0 354 0 352 342
339 339 337 339 340 331 329 325 321 320 319 317 313 308 304 302 298 294 289 283 277 276 275 277 278 275 268 306 276 293 276 328 129 160 197 276 248 249 272 304 347 8 324 6 8 350 347
338 338 336 336 340 329 328 327 326 321 319 316 313 308 304 299 296 293 286 280 276 278 281 280 280 277 266 305 309 94 320 33 119 123 232 249 237 225 340 182 133 67 81 326 36 347 331
340 336 334 335 333 329 326 323 323 321 318 316 315 309 303 299 295 292 283 276 280 277 274 274 268 272 269 276 318 107 312 284 118 110 69 259 242 169 187 161 138 119 78 96 19 30 346
340 333 332 334 329 325 324 324 322 321 320 315 313 308 300 297 293 292 284 280 275 271 257 256 273 272 290 290 286 204 99 113 116 130 146 154 161 171 164 174 308 84 341 349 19 340 319
340 331 330 332 327 323 323 325 325 323 320 318 311 306 299 295 290 286 277 265 283 279 265 250 259 257 273 272 272 204 131 192 166 153 153 137 176 177 214 286 185 119 90 104 26 24 44
335 331 329 328 325 323 324 325 322 323 323 318 314 303 298 292 287 280 271 263 282 277 264 256 251 256 263 266 263 205 155 183 175 160 159 166 170 190 303 125 151 143 171 339 343 116 183
331 330 329 326 324 323 324 320 322 325 326 321 313 303 294 289 285 283 270 270 265 275 260 252 247 252 250 258 258 210 193 246 264 177 165 196 184 182 138 164 161 173 38 335 76 148 351
328 326 326 324 320 321 322 320 321 326 329 318 307 295 290 289 279 267 284 276 269 263 252 235 230 239 235 246 267 237 204 249 246 263 176 186 199 170 164 170 166 184 4 160 142 202 231
328 327 324 320 319 318 320 321 323 323 324 309 297 290 291 292 275 259 270 266 258 245 250 247 243 238 228 238 257 200 214 247 242 256 172 205 190 158 174 173 180 208 281 57 135 169 170
319 329 321 317 317 316 318 317 321 313 307 296 286 281 293 271 287 266 255 247 243 237 251 249 241 224 226 234 246 235 213 229 236 238 194 192 197 173 164 175 175 318 149 136 90 143 202
321 327 318 315 313 314 316 314 310 306 300 291 283 282 310 267 267 258 248 241 239 238 252 259 240 227 230 225 239 238 238 236 241 251 242 178 180 173 174 179 167 166 172 172 0 334 293
322 318 317 312 311 312 313 311 307 305 300 294 284 10 319 290 256 246 240 234 236 252 249 245 237 231 233 226 245 242 242 239 224 244 249 253 199 171 176 182 179 169 185 196 249 273 318
322 317 313 307 304 308 308 306 304 303 300 290 46 52 341 304 259 243 243 233 259 260 246 249 234 234 231 223 244 237 240 247 245 213 240 280 276 241 188 189 181 193 158 195 315 319 318
317 313 309 306 304 305 301 302 304 302 298 291 67 67 334 297 251 238 235 240 255 250 246 243 241 238 238 231 243 240 250 266 248 227 250 255 274 241 274 183 186 179 188 188 210 309 289
312 310 307 304 302 301 299 301 304 304 300 76 170 105 8 274 240 221 221 238 249 242 240 248 254 252 242 240 240 248 254 255 257 250 236 258 282 277 242 219 196 189 189 185 291 315 306
309 305 303 303 303 302 303 302 302 302 303 202 135 46 12 204 214 211 221 241 234 237 239 244 244 246 253 245 245 249 254 265 266 251 243 251 275 277 275 278 197 199 195 206 205 219 303
305 303 305 307 308 305 304 301 299 296 288 158 177 91 107 185 225 227 212 227 224 232 242 246 252 250 247 248 252 252 263 268 268 257 263 258 268 276 280 290 232 224 227 233 283 288 228
308 304 304 305 307 305 301 299 298 295 282 149 163 237 270 150 197 216 230 232 222 230 234 242 244 241 246 253 255 262 258 272 265 266 266 261 266 272 277 280 287 272 245 228 252 214 237
304 305 308 305 304 304 303 302 304 303 287 150 221 259 252 229 232 213 227 226 227 229 243 240 241 246 252 252 260 259 258 273 274 266 265 260 272 277 278 285 283 289 288 269 232 236 239
297 302 305 307 306 307 307 309 311 314 295 235 282 239 232 228 214 201 229 237 236 240 246 251 252 260 252 258 274 271 283 276 297 276 266 266 271 279 285 288 287 277 274 283 280 267 276
289 290 291 299 303 306 307 306 309 314 313 247 284 244 228 211 230 256 279 264 247 248 249 253 257 256 276 272 269 266 271 280 285 278 279 274 275 280 284 290 281 287 283 281 278 265 274
283 284 282 280 286 291 301 308 306 304 301 268 272 264 255 227 244 269 257 259 264 270 259 264 263 273 280 271 265 269 271 276 277 279 280 285 279 281 280 281 290 294 287 286 282 276 273
285 284 280 279 275 272 278 285 300 301 299 262 265 279 260 259 234 277 267 258 244 262 275 270 278 273 273 271 266 267 268 276 271 261 263 277 277 283 284 286 285 286 312 292 283 280 279
285 282 278 278 278 274 272 271 267 287 294 267 207 307 282 253 242 273 260 258 274 266 272 281 284 280 274 264 264 266 270 285 263 278 239 255 272 276 278 282 232 298 300 295 286 286 296
287 282 280 282 283 274 268 265 261 266 282 296 264 349 265 266 246 260 261 262 271 267 256 296 292 277 277 266 265 266 270 275 279 261 245 290 201 271 284 279 271 296 286 282 296 304 297
295 290 282 277 273 296 308 307 329 340 309 293 102 7 350 156 255 277 259 250 250 254 268 280 287 286 286 277 267 269 286 277 272 284 293 280 283 284 283 298 293 300 288 289 286 299 298